Other Public Products
Issued by NWS Grand Forks, ND

Home | Current Version | Previous Version | Graphics & Text | Print | Product List | Glossary On
Versions: 1 2 3 4 5 6 7 8 9 10 11 12 13 14 15 16 17 18 19 20 21 22 23 24 25 26 27 28 29 30 31 32 33 34 35 36 37 38 39 40 41 42 43 44 45 46 47 48 49 50
000
FPUS83 KFGF 282010
OPUFGF
PRAIRIE TO PINES WEATHER ROUNDUP
NATIONAL WEATHER SERVICE EASTERN NORTH DAKOTA/GRAND FORKS ND
300 PM CDT FRI AUG 28 2015

 **SATELLITE DATA USED TO AUGMENT SKY COVER AT AUTOMATED STATIONS**
 *****  WEATHER ACROSS EASTERN NORTH DAKOTA  *****

CITY           SKY/WX    TMP DP  RH WIND       PRES   REMARKS
GRAND FORKS    MOSUNNY   85  67  54 SW25G31   29.81S
GRAND FORKS AF SUNNY     85  68  57 S21       29.81S
GRAND CITY NWS   N/A     82 N/A N/A SW16        N/A
BUXTON         NOT AVBL
DEVILS LAKE    SUNNY     82  63  51 SW9       29.83S
FARGO          MOSUNNY   82  66  58 S20G25    29.89F
WAHPETON ARPT  MOCLDY    77  63  61 S14       29.94S
$$

 *****  WEATHER ACROSS CENTRAL AND WESTERN NORTH DAKOTA  *****

CITY           SKY/WX    TMP DP  RH WIND       PRES   REMARKS
JAMESTOWN      MOSUNNY   82  67  60 S15G21    29.88F
BISMARCK       SUNNY     88  66  48 SW12      29.89S HX  90
MINOT          SUNNY     84  57  39 W5        29.86S
MINOT AFB      SUNNY     86  59  39 N3        29.85S
GARRISON         N/A     84  30  14 VRB6      29.88S
WILLISTON      SUNNY     87  60  40 S8        29.89S
DICKINSON      SUNNY     89  49  25 N5        29.92S
HETTINGER      SUNNY     88  51  28 W12       29.97R
$$

 *****  OTHER OBSERVATIONS NORTHEAST NORTH DAKOTA  *****

CITY           SKY/WX    TMP DP  RH WIND       PRES   REMARKS
WALHALLA       FAIR      82  66  57 MISG      29.80S
LANGDON        FAIR      84  64  51 W14G20    29.83F
CAVALIER       FAIR      82  68  61 SW7       29.79S
GRAFTON        FAIR      86  68  54 SW18G24   29.80S
CANDO          NOT AVBL
FORT TOTTEN      N/A     85  65  50 SW6       29.95S
ROLLA            N/A     81  64  57 W7        29.86S
RUGBY          FAIR      82  64  54 W7        29.85S
 ***** THE ABOVE OBSERVATIONS ARE NON NWS ARE NOT QUALITY
        CONTROLLED AND MAY MIS-REPORT RAIN FOR SNOW...
$$

 *****  OTHER OBSERVATIONS SOUTHEAST NORTH DAKOTA *****

CITY           SKY/WX    TMP DP  RH WIND       PRES   REMARKS
COOPERSTOWN    NOT AVBL
VALLEY CITY    FAIR      75  73  94 S17G24    29.90F
OAKES            N/A     81  66  61 S13G18    29.93F
GWINNER        FAIR      79  70  73 S12       29.94S
BUFFALO        NOT AVBL
WYNDMERE         N/A     81  68  65 S8          N/A
 ***** THE ABOVE OBSERVATIONS ARE NON NWS ARE NOT QUALITY
       CONTROLLED AND MAY MIS-REPORT RAIN FOR SNOW...
$$

  *****  WEATHER ACROSS NORTHERN MINNESOTA  *****

CITY           SKY/WX    TMP DP  RH WIND       PRES   REMARKS
FLAG ISLAND    PTSUNNY   70  64  83 S5        29.83S
WARROAD        PTSUNNY   79  70  73 SW9       29.83F
ROSEAU         MOSUNNY   82  70  65 SW10G20   29.82F
HALLOCK        MOSUNNY   82  70  65 W8        29.80S
THF RVR FALLS  MOSUNNY  N/A N/A N/A S20G25    29.84R
HALSTAD        NOT AVBL
FOSSTON        PTSUNNY   81  64  57 S21G29    29.89S
BAUDETTE       CLOUDY    77  69  76 CALM      29.84F
WASKISH        PTSUNNY   79  66  65 S8G16     29.85F
CROOKSTON      SUNNY     82  68  61 SW22G28   29.84S
$$
  *****  WEATHER ACROSS CENTRAL AND WEST MINNESOTA  *****

CITY           SKY/WX    TMP DP  RH WIND       PRES   REMARKS
BEMIDJI        MOSUNNY   79  65  61 S16G24    29.89F
PARK RAPIDS    PTSUNNY   80  64  58 SW14      29.94F
WADENA         SUNNY     79  63  57 S14       29.95F
DETROIT LAKES  SUNNY     75  64  69 S14       29.95F
MOORHEAD       SUNNY     79  66  65 S14       29.91F
FERGUS FALLS   PTSUNNY   77  66  69 S8G16     29.94S
ELBOW LAKE     FAIR      76  65  68 S12       29.95F
MORRIS MN      MOSUNNY   79  64  61 S9        29.96F
STAPLES        MOSUNNY   77  63  61 S8        29.96F
WHEATON        SUNNY     75  64  69 S14G21    29.94F
$$
  *****  WEATHER ELSEWHERE ACROSS MINNESOTA  *****

CITY           SKY/WX    TMP DP  RH WIND       PRES   REMARKS
DULUTH         MOSUNNY   79  64  60 SW14      29.97F
INTRNTL FALLS  PTSUNNY   80  69  69 SW8       29.85S
ELY            PTSUNNY   72  64  78 S9        29.92F
CLOQUET        PTSUNNY   77  63  61 SW12      29.97F
BRAINERD       SUNNY     79  63  57 SW10      29.98F
HIBBING        MOSUNNY   79  65  62 S8        29.93F
ALEXANDRIA     PTSUNNY   77  63  61 S13       30.00R
SAINT CLOUD    MOSUNNY   79  63  57 S12       29.99R
MINNEAPOLIS    PTSUNNY   76  64  66 SE9       29.99F
$$

  *****  WEATHER ACROSS SOUTH DAKOTA  *****

CITY           SKY/WX    TMP DP  RH WIND       PRES   REMARKS
SIOUX FALLS    CLOUDY    69  62  78 NE15      29.95R
BROOKINGS      CLOUDY    72  63  73 E5        29.99S
WATERTOWN      PTSUNNY   76  64  66 S7        29.98R
HURON          MOSUNNY   79  65  62 E7        29.95S
SISSETON         N/A     80  66  62 S12       29.91F
ABERDEEN       PTSUNNY   77  67  71 S8        29.94F
MITCHELL       MOSUNNY   78  64  61 NE5       29.96F
PIERRE         SUNNY     79  66  64 CALM      29.96F
MOBRIDGE       SUNNY     81  71  71 SE14      29.92F
RAPID CITY     SUNNY     85  56  37 N8        30.04S
$$

  *****  SOME WEATHER IN NEARBY STATES *****

CITY           SKY/WX    TMP DP  RH WIND       PRES   REMARKS
GLASGOW MT     PTSUNNY   86  40  19 W16       29.92S HAZE
GREAT FALLS MT CLOUDY    89  29  11 SW14G25   30.00F HAZE
CHEYENNE WY    MOSUNNY   79  41  25 W13       30.27F
SCOTTSBLUFF NE SUNNY     88  47  24 W10       30.10F
OMAHA NE       CLOUDY    76  69  79 NW13      29.83R
DES MOINES IA  CLOUDY    74  67  78 S16G22    29.85F
DAVENPORT IA   CLOUDY    69  62  78 SE10      30.05F
CHICAGO IL     CLOUDY    72  59  63 SW5       30.11F
EAU CLAIRE WI  LGT RAIN  68  64  87 VRB3      30.01F
LA CROSSE WI   RAIN      63  58  83 CALM      30.03R
$$

  *****  SOME NATIONAL WEATHER *****

CITY           SKY/WX    TMP DP  RH WIND       PRES   REMARKS
LA GUARDIA NY  MOSUNNY   80  50  34 NW5       30.13F
RALEIGH NC     PTSUNNY   86  55  34 CALM      30.15F
ATLANTA GA     MOSUNNY   82  66  58 E16G22    30.11F
NEW ORLEANS LA MOSUNNY   90  63  40 NE8       29.96F HX  91
OKLAHOMA CITY  CLOUDY    79  67  66 S12       29.96F
ALBUQUERQUE NM PTSUNNY   88  50  27 NW9       30.18F
SALT LAKE CITY MOSUNNY   91  37  15 VRB6      30.13F
LOS ANGELES CA MOSUNNY   84  66  54 W12       29.87F
BOISE ID       MOSUNNY   89  38  16 N8        29.99F
SEATTLE WA     CLOUDY    70  56  61 SW5       29.96F
$$

*** WEATHER ACROSS MANITOBA...SASKATCHEWAN AND ONTARIO ***
                ***ONTARIO***

CITY           SKY/WX    TMP DP  RH WIND       PRES   REMARKS
GERALDTON      CLOUDY    66  59  77 S8        29.90S
THUNDER BAY    CLOUDY    68  57  68 NE8       29.91S
SIOUX LOOKOUT  NOT AVBL
TORONTO        MOSUNNY   72  55  56 SE10      30.16F
BIG TROUT LK   MOSUNNY   68  52  56 VRB5      29.82S
PICKLE LAKE    PTSUNNY   73  55  53 SW2       29.82F
DRYDEN         CLOUDY    70  66  88 SW10      29.85S
KENORA         NOT AVBL
$$
                *** MANITOBA***

CITY           SKY/WX    TMP DP  RH WIND       PRES   REMARKS
BRANDON        PTSUNNY   82  64  54 VRB2      29.83S
DAUPHIN        SUNNY     82  57  42 N9        29.82R
ISLAND LAKE    MOSUNNY   70  59  68 VRB2      29.79S
PILOT MOUND      N/A     79  63  57 W8          N/A
THE PAS        PTSUNNY   81  54  39 W12       29.75S
THOMPSON       MOSUNNY   75  55  50 SW10      29.70S
WINNIPEG       PTSUNNY   81  66  61 VRB2      29.81R
LYNN LAKE      SUNNY     79  50  36 MISG      29.62F
CHURCHILL      PTSUNNY   68  50  52 S12       29.69F
GILLAM         MOSUNNY   73  46  38 S8        29.73F
$$
                ***SASKATCHEWAN***

CITY           SKY/WX    TMP DP  RH WIND       PRES   REMARKS
ESTEVAN        CLOUDY    84  59  42 SW3       29.87S SMOKE
KINDERSLEY     PTSUNNY   82  52  34 S10G18    29.83F SMOKE
LLOYDMINSTER   PTSUNNY   77  57  50 S12       29.78F
PRINCE ALBERT  PTSUNNY   81  55  41 SW14      29.81S
REGINA         CLOUDY    79  61  53 E5        29.86F
YORKTON        SUNNY     79  52  38 NW3       29.86S


USA.gov is the U.S. government's official web portal to all federal, state and local government web resources and services.